When you browse on this site, cookies collect data to enhance your experience and personalize the content and advertising you see.
Visit our Privacy Policy to learn more. By continuing to use the site, you agree to this use of cookies and data.
  • en France
  • Liste des pays
  • À 7 jours
  • Température de l'eau
  • Carte satellitaire
  • Carte météo
  • Widgets météo
  • user-avatar
    Se connecter

    Météo par heure à Ile d'Orango

    Ce jour, 21 Juillet, Dimanche

    Heure Température Précipitation Vent Pression Humidité
    00:00 +28°C° 0.2 mm 2 m/s 758 mmHg 81%
    01:00 +28°C° 0.2 mm 2 m/s 758 mmHg 81%
    02:00 +28°C° 0.2 mm 3 m/s 757 mmHg 81%
    03:00 +28°C° 0 mm 3 m/s 757 mmHg 80%
    04:00 +28°C° 0 mm 2 m/s 757 mmHg 80%
    05:00 +28°C° 0 mm 1 m/s 757 mmHg 77%
    06:00 +28°C° 0 mm 2 m/s 758 mmHg 79%
    07:00 +28°C° 0 mm 2 m/s 758 mmHg 80%
    08:00 +28°C° 0 mm 3 m/s 759 mmHg 81%
    09:00 +28°C° 0 mm 3 m/s 759 mmHg 81%
    10:00 +28°C° 0 mm 3 m/s 759 mmHg 80%
    11:00 +28°C° 0 mm 3 m/s 759 mmHg 80%
    12:00 +28°C° 0 mm 4 m/s 758 mmHg 80%
    13:00 +28°C° 0 mm 4 m/s 758 mmHg 81%
    14:00 +28°C° 0 mm 5 m/s 758 mmHg 81%
    15:00 +28°C° 0 mm 5 m/s 757 mmHg 81%
    16:00 +28°C° 0 mm 5 m/s 757 mmHg 82%
    17:00 +28°C° 0 mm 5 m/s 757 mmHg 82%
    18:00 +28°C° 0.1 mm 5 m/s 758 mmHg 82%
    19:00 +28°C° 0.1 mm 5 m/s 758 mmHg 83%
    20:00 +28°C° 0.1 mm 5 m/s 759 mmHg 83%
    21:00 +28°C° 0 mm 5 m/s 759 mmHg 83%
    22:00 +28°C° 0 mm 5 m/s 759 mmHg 83%
    23:00 +28°C° 0 mm 5 m/s 759 mmHg 83%

    Demain, 22 Juillet, Lundi

    Heure Température Précipitation Vent Pression Humidité
    00:00 +28°C° 0 mm 5 m/s 759 mmHg 83%
    01:00 +28°C° 0 mm 5 m/s 758 mmHg 84%
    02:00 +28°C° 0 mm 5 m/s 758 mmHg 84%
    03:00 +28°C° 0 mm 5 m/s 758 mmHg 84%
    04:00 +28°C° 0 mm 5 m/s 758 mmHg 85%
    05:00 +28°C° 0 mm 5 m/s 758 mmHg 85%
    06:00 +28°C° 0.8 mm 5 m/s 758 mmHg 85%
    07:00 +28°C° 0.8 mm 6 m/s 759 mmHg 85%
    08:00 +28°C° 0.8 mm 6 m/s 759 mmHg 84%
    09:00 +28°C° 4.7 mm 6 m/s 759 mmHg 84%
    10:00 +27°C° 4.7 mm 5 m/s 759 mmHg 84%
    11:00 +26°C° 4.7 mm 5 m/s 759 mmHg 84%
    12:00 +27°C° 0.2 mm 5 m/s 758 mmHg 83%
    13:00 +27°C° 0.2 mm 4 m/s 757 mmHg 83%
    14:00 +27°C° 0.2 mm 4 m/s 757 mmHg 82%
    15:00 +27°C° 0 mm 5 m/s 756 mmHg 84%
    16:00 +27°C° 0 mm 6 m/s 756 mmHg 85%
    17:00 +27°C° 0 mm 6 m/s 756 mmHg 87%
    18:00 +28°C° 0 mm 6 m/s 756 mmHg 86%
    19:00 +28°C° 0 mm 5 m/s 757 mmHg 84%
    20:00 +28°C° 0 mm 5 m/s 757 mmHg 83%
    21:00 +28°C° 0 mm 4 m/s 757 mmHg 82%
    22:00 +28°C° 0 mm 4 m/s 757 mmHg 82%
    23:00 +28°C° 0 mm 3 m/s 758 mmHg 82%

    Après-demain, 23 Juillet, Mardi

    Heure Température Précipitation Vent Pression Humidité
    00:00 +28°C° 0 mm 3 m/s 757 mmHg 82%
    01:00 +28°C° 0 mm 3 m/s 757 mmHg 82%
    02:00 +28°C° 0 mm 4 m/s 756 mmHg 82%
    03:00 +28°C° 0.4 mm 4 m/s 756 mmHg 83%
    04:00 +28°C° 0.4 mm 4 m/s 756 mmHg 83%
    05:00 +28°C° 0.4 mm 4 m/s 756 mmHg 83%
    06:00 +28°C° 0.3 mm 3 m/s 757 mmHg 82%
    07:00 +28°C° 0.3 mm 3 m/s 757 mmHg 82%
    08:00 +28°C° 0.3 mm 2 m/s 757 mmHg 81%
    09:00 +28°C° 0 mm 2 m/s 757 mmHg 80%
    10:00 +28°C° 0 mm 1 m/s 757 mmHg 78%
    11:00 +28°C° 0 mm 1 m/s 757 mmHg 77%
    12:00 +28°C° 0 mm 1 m/s 757 mmHg 76%
    13:00 +29°C° 0 mm 2 m/s 757 mmHg 76%
    14:00 +29°C° 0 mm 3 m/s 756 mmHg 75%
    15:00 +29°C° 0.1 mm 4 m/s 756 mmHg 77%
    16:00 +29°C° 0.1 mm 4 m/s 756 mmHg 78%
    17:00 +29°C° 0.1 mm 5 m/s 756 mmHg 80%
    18:00 +28°C° 0 mm 6 m/s 756 mmHg 81%
    19:00 +28°C° 0 mm 6 m/s 756 mmHg 82%
    20:00 +28°C° 0 mm 7 m/s 757 mmHg 83%
    21:00 +28°C° 0.1 mm 7 m/s 757 mmHg 83%
    22:00 +28°C° 0.1 mm 8 m/s 757 mmHg 84%
    23:00 +28°C° 0.1 mm 8 m/s 757 mmHg 84%

    24 Juillet, Mercredi

    Heure Température Précipitation Vent Pression Humidité
    00:00 +28°C° 0.1 mm 8 m/s 757 mmHg 84%
    01:00 +28°C° 0.1 mm 8 m/s 757 mmHg 85%
    02:00 +28°C° 0.1 mm 8 m/s 756 mmHg 85%
    03:00 +28°C° 0.8 mm 8 m/s 756 mmHg 85%
    04:00 +28°C° 0.8 mm 8 m/s 756 mmHg 85%
    05:00 +28°C° 0.8 mm 7 m/s 756 mmHg 85%
    06:00 +28°C° 1.9 mm 7 m/s 757 mmHg 84%
    07:00 +28°C° 1.9 mm 7 m/s 757 mmHg 84%
    08:00 +28°C° 1.9 mm 7 m/s 758 mmHg 84%
    09:00 +28°C° 1.5 mm 7 m/s 758 mmHg 84%
    10:00 +28°C° 1.5 mm 7 m/s 758 mmHg 83%
    11:00 +28°C° 1.5 mm 7 m/s 758 mmHg 83%
    12:00 +28°C° 2.2 mm 7 m/s 758 mmHg 83%
    13:00 +28°C° 2.2 mm 7 m/s 757 mmHg 83%
    14:00 +28°C° 2.2 mm 7 m/s 757 mmHg 84%
    15:00 +28°C° 2 mm 7 m/s 757 mmHg 85%
    16:00 +27°C° 2 mm 6 m/s 757 mmHg 85%
    17:00 +27°C° 2 mm 6 m/s 756 mmHg 86%
    18:00 +27°C° 1.5 mm 6 m/s 757 mmHg 86%
    19:00 +27°C° 1.5 mm 6 m/s 757 mmHg 85%
    20:00 +27°C° 1.5 mm 7 m/s 758 mmHg 85%
    21:00 +28°C° 0.6 mm 7 m/s 758 mmHg 84%
    22:00 +28°C° 0.6 mm 6 m/s 758 mmHg 83%
    23:00 +28°C° 0.6 mm 6 m/s 759 mmHg 82%

    25 Juillet, Jeudi

    Heure Température Précipitation Vent Pression Humidité
    00:00 +28°C° 0.1 mm 7 m/s 758 mmHg 82%
    01:00 +28°C° 0.1 mm 7 m/s 758 mmHg 82%
    02:00 +28°C° 0.1 mm 7 m/s 757 mmHg 81%
    03:00 +28°C° 0.3 mm 7 m/s 758 mmHg 81%
    04:00 +28°C° 0.3 mm 7 m/s 758 mmHg 81%
    05:00 +28°C° 0.3 mm 6 m/s 758 mmHg 80%
    06:00 +28°C° 0.4 mm 6 m/s 758 mmHg 81%
    07:00 +28°C° 0.4 mm 5 m/s 758 mmHg 81%
    08:00 +28°C° 0.4 mm 5 m/s 759 mmHg 82%
    09:00 +28°C° 0.7 mm 5 m/s 759 mmHg 82%
    10:00 +28°C° 0.7 mm 5 m/s 759 mmHg 82%
    11:00 +28°C° 0.7 mm 4 m/s 759 mmHg 82%
    12:00 +28°C° 0.8 mm 5 m/s 758 mmHg 82%
    13:00 +28°C° 0.8 mm 5 m/s 758 mmHg 82%
    14:00 +28°C° 0.8 mm 5 m/s 758 mmHg 82%
    15:00 +28°C° 0.3 mm 5 m/s 758 mmHg 82%
    16:00 +28°C° 0.3 mm 5 m/s 757 mmHg 83%
    17:00 +28°C° 0.3 mm 6 m/s 757 mmHg 83%
    18:00 +28°C° 0.3 mm 6 m/s 758 mmHg 83%
    19:00 +28°C° 0.3 mm 5 m/s 758 mmHg 83%
    20:00 +28°C° 0.3 mm 5 m/s 759 mmHg 82%
    21:00 +28°C° 0 mm 5 m/s 759 mmHg 82%
    22:00 +28°C° 0 mm 6 m/s 759 mmHg 83%
    23:00 +28°C° 0 mm 6 m/s 759 mmHg 83%

    26 Juillet, Vendredi

    Heure Température Précipitation Vent Pression Humidité
    00:00 +28°C° 0 mm 6 m/s 759 mmHg 83%
    01:00 +28°C° 0 mm 6 m/s 758 mmHg 83%
    02:00 +28°C° 0 mm 6 m/s 758 mmHg 83%
    03:00 +28°C° 1.1 mm 6 m/s 758 mmHg 84%
    04:00 +28°C° 1.1 mm 6 m/s 758 mmHg 84%
    05:00 +28°C° 1.1 mm 6 m/s 758 mmHg 84%
    06:00 +28°C° 1.2 mm 6 m/s 758 mmHg 84%
    07:00 +28°C° 1.2 mm 6 m/s 759 mmHg 83%
    08:00 +28°C° 1.2 mm 5 m/s 759 mmHg 82%
    09:00 +28°C° 1.3 mm 5 m/s 759 mmHg 82%
    10:00 +28°C° 1.3 mm 5 m/s 759 mmHg 83%
    11:00 +28°C° 1.3 mm 5 m/s 759 mmHg 83%
    12:00 +28°C° 0.3 mm 5 m/s 759 mmHg 83%
    13:00 +28°C° 0.3 mm 5 m/s 758 mmHg 83%
    14:00 +28°C° 0.3 mm 5 m/s 758 mmHg 84%
    15:00 +28°C° 0 mm 5 m/s 757 mmHg 84%
    16:00 +28°C° 0 mm 6 m/s 757 mmHg 84%
    17:00 +28°C° 0 mm 6 m/s 757 mmHg 84%
    18:00 +28°C° 0 mm 6 m/s 757 mmHg 84%
    19:00 +28°C° 0 mm 5 m/s 758 mmHg 84%
    20:00 +28°C° 0 mm 5 m/s 758 mmHg 84%
    21:00 +28°C° 0 mm 5 m/s 758 mmHg 84%
    22:00 +28°C° 0 mm 5 m/s 759 mmHg 84%
    23:00 +28°C° 0 mm 5 m/s 759 mmHg 85%
    Voir plus